Location: Allos
(44.2333°N, 6.6333°E)
Time: 14:13:28
(UTC+00:00)

SKYMED 3 - Visible Passes

Search period start: 20 April 2021 00:00
Search period end: 30 April 2021 00:00
Orbit: 621 x 623 km, 97.9° (Epoch: 20 April)

Date Brightness Start Highest point End Pass type
(mag) Time Alt. Az. Time Alt. Az. Time Alt. Az.
20 Apr 8.3 03:15:49 10° E 03:17:17 12° ENE 03:18:45 10° NE visible
21 Apr 7.9 03:32:18 10° ESE 03:35:05 17° ENE 03:37:53 10° NNE visible
22 Apr 7.3 03:49:26 10° ESE 03:52:57 25° ENE 03:56:29 10° NNE visible
23 Apr 6.5 04:06:53 10° SE 04:10:51 36° ENE 04:14:51 10° N visible
23 Apr 8.1 19:05:53 10° NNW 19:08:23 15° WNW 19:10:53 10° W visible
24 Apr 8.6 19:25:39 10° NW 19:26:12 10° WNW 19:26:44 10° WNW visible
25 Apr 8.5 03:11:10 10° ENE 03:11:23 10° ENE 03:11:36 10° NE visible
26 Apr 8.0 03:26:44 10° E 03:29:11 15° ENE 03:31:39 10° NNE visible
27 Apr 7.6 03:43:43 10° ESE 03:47:01 22° ENE 03:50:21 10° NNE visible
29 Apr 8.5 19:18:45 10° NW 19:20:18 12° WNW 19:21:50 10° W visible
